Tracking 35331 objects as of 15-Sep-2026
HD Live streaming from Space Station
objects crossing your sky now

COSMOS 1588 DEB


COSMOS 1588 DEB is no longer on orbit


NORAD ID: 16666
Int'l Code: 1984-083AC
Launch date: August 7, 1984
Source: Commonwealth of Independent States (former USSR) (CIS)
Launch site: TYURATAM MISSILE AND SPACE COMPLEX (TTMTR)
Decay date: 1986-04-11

Note: This is SATELLITE DEBRIS
Your satellite tracking list
Your tracking list is empty




NASA's NSSDC Master Catalog

Two Line Element Set (TLE):
1 16666U 84083AC  86100.35947745  .12909492 +00000-0 +51865-1 0  9999
2 16666 064.6051 095.6988 0022238 105.3758 255.2325 15.85661643006904
Source of the keplerian elements: AFSPC